Dublin, Ireland

12:55 AM IST on May 25, 2017 (GMT +0100)
Dublin International

Weather History for EIDW - June, 2013

Change the Weather History Date:

Thursday, June 13, 2013

  Actual Average Record
Temperature  
Mean Temperature 55 °F -  
Max Temperature 62 °F 64 °F 73 °F (2004)
Min Temperature 48 °F 51 °F 41 °F (2005)
Degree Days  
Heating Degree Days 10    
Growing Degree Days 5 (Base 50)    
Moisture  
Dew Point 49 °F    
Average Humidity 84    
Maximum Humidity 100    
Minimum Humidity 63    
Precipitation  
Precipitation 0.08 in 0.07 in - ()
Sea Level Pressure  
Sea Level Pressure 29.72 in    
Wind  
Wind Speed 10 mph ()    
Max Wind Speed 25 mph    
Max Gust Speed 37 mph    
Visibility 5.4 miles    
Events Fog , Rain    
Averages and records for this station are not official NWS values.
T = Trace of Precipitation, MM = Missing Value Source: Averaged Metar Reports

Daily Weather History Graph

Daily Weather History Graph

Search for Another Location

Airport or City:

Trip Planner

Search our weather history database for the weather conditions in past years. The results will help you decide how hot, cold, wet, or windy it might be!

Date:

Astronomy

Jun. 13, 2013 Rise Set
Actual Time 4:56 AM IST 9:54 PM IST
Civil Twilight 4:03 AM IST 10:46 PM IST
Nautical Twilight 2:31 AM IST 12:19 AM IST
Astronomical Twilight Sun does not set Sun does not set
Moon 9:53 AM IST (6/13) No Moon Set
Length of Visible Light 18h 42m
Length of Day
16h 58m
Waxing Crescent, 20% of the Moon is Illuminated
Jun 13
Waxing Crescent
Jun 16
First Quarter
Jun 23
Full
Jun 30
Last Quarter
Jul 8
New

Hourly Weather History & Observations

Time (IST) Temp. Dew Point Humidity Pressure Visibility Wind Dir Wind Speed Gust Speed Precip Events Conditions
12:00 AM 53.6 °F 51.8 °F 94% 29.53 in 3.1 mi ENE 4.6 mph - N/A Rain Rain
12:30 AM 53.6 °F 53.6 °F 100% 29.53 in - NE 3.5 mph - N/A   Mostly Cloudy
1:00 AM 53 °F 53 °F 99% 29.56 in 1 mi NNE 4.5 mph - - Fog Partial Fog
1:00 AM 53.6 °F 51.8 °F 94% 29.53 in 0.6 mi NNE 4.6 mph - N/A Fog Fog
1:30 AM 51.8 °F 51.8 °F 100% 29.53 in 0.9 mi Calm Calm - N/A   Mostly Cloudy
2:00 AM 53.6 °F 51.8 °F 94% 29.53 in 6.2 mi North 4.6 mph - N/A   Light Drizzle
2:30 AM 53.6 °F 51.8 °F 94% 29.53 in 6.2 mi North 4.6 mph - N/A Rain Rain
3:00 AM 53.6 °F 51.8 °F 94% 29.56 in 4.3 mi North 5.8 mph - N/A   Light Drizzle
3:30 AM 51.8 °F 51.8 °F 100% 29.56 in 4.3 mi North 5.8 mph - N/A Rain Rain
4:00 AM 53.6 °F 51.8 °F 94% 29.56 in 3.1 mi North 8.1 mph - N/A Rain Light Drizzle
4:30 AM 51.8 °F 51.8 °F 100% 29.56 in - North 12.7 mph - N/A Rain Rain
5:00 AM 51.8 °F 50.0 °F 94% 29.59 in - North 11.5 mph - N/A Rain Rain
5:30 AM 51.8 °F 50.0 °F 94% 29.59 in 3.7 mi North 11.5 mph - N/A Rain Rain
6:00 AM 51.8 °F 50.0 °F 94% 29.62 in 2.5 mi NNW 10.4 mph - N/A   Light Drizzle
6:30 AM 50.0 °F 50.0 °F 100% 29.62 in 3.7 mi NNW 11.5 mph - N/A   Light Drizzle
7:00 AM 49 °F 48 °F 95% 29.67 in 4 mi NW 13.4 mph - - Rain Light Rain
7:00 AM 48.2 °F 48.2 °F 100% 29.65 in 4.3 mi NW 13.8 mph - N/A Rain Light Rain
7:30 AM 48.2 °F 46.4 °F 93% 29.65 in 4.3 mi NW 12.7 mph - N/A   Light Drizzle
8:00 AM 48.2 °F 48.2 °F 100% 29.68 in 6.2 mi WNW 13.8 mph - N/A   Mostly Cloudy
8:30 AM 50.0 °F 48.2 °F 94% 29.71 in 6.2 mi West 15.0 mph - N/A Rain Light Rain
9:00 AM 50.0 °F 48.2 °F 94% 29.71 in 6.2 mi WNW 16.1 mph - N/A Rain Light Rain
9:30 AM 51.8 °F 50.0 °F 94% 29.74 in 6.2 mi West 12.7 mph - N/A Rain Light Rain
10:00 AM 51.8 °F 50.0 °F 94% 29.74 in 6.2 mi West 15.0 mph - N/A Rain Light Rain
10:30 AM 53.6 °F 50.0 °F 88% 29.74 in 6.2 mi West 12.7 mph - N/A   Mostly Cloudy
11:00 AM 55.4 °F 50.0 °F 82% 29.74 in 6.2 mi West 15.0 mph - N/A   Mostly Cloudy
11:30 AM 55.4 °F 48.2 °F 77% 29.74 in 6.2 mi West 13.8 mph - N/A Rain Light Rain Showers
12:00 PM 57.2 °F 50.0 °F 77% 29.77 in 6.2 mi West 13.8 mph - N/A   Scattered Clouds
12:30 PM 57.2 °F 48.2 °F 72% 29.77 in 6.2 mi West 16.1 mph - N/A   Mostly Cloudy
1:00 PM 57 °F 53 °F 81% 29.79 in 7 mi West 11.2 mph - - Rain Light Rain Showers
1:00 PM 57.2 °F 53.6 °F 88% 29.77 in 6.2 mi West 10.4 mph - N/A Rain Light Rain Showers
1:30 PM 57.2 °F 48.2 °F 72% 29.77 in 6.2 mi West 17.3 mph - N/A Rain Light Rain Showers
2:00 PM 59.0 °F 48.2 °F 67% 29.77 in 6.2 mi West 18.4 mph - N/A Rain Light Rain Showers
2:30 PM 59.0 °F 48.2 °F 67% 29.77 in 6.2 mi West 20.7 mph - N/A   Scattered Clouds
3:00 PM 60.8 °F 50.0 °F 68% 29.80 in 6.2 mi West 23.0 mph - N/A   Scattered Clouds
3:30 PM 60.8 °F 48.2 °F 63% 29.80 in 6.2 mi West 21.9 mph - N/A   Scattered Clouds
4:00 PM 57.2 °F 48.2 °F 72% 29.80 in 6.2 mi WNW 19.6 mph - N/A   Partly Cloudy
4:30 PM 60.8 °F 50.0 °F 68% 29.80 in 6.2 mi West 18.4 mph - N/A   Scattered Clouds
5:00 PM 55.4 °F 48.2 °F 77% 29.83 in 6.2 mi WNW 19.6 mph 34.5 mph N/A Rain Light Rain Showers
5:30 PM 53.6 °F 48.2 °F 82% 29.83 in 6.2 mi West 19.6 mph 31.1 mph N/A Rain Light Rain Showers
6:00 PM 53.6 °F 46.4 °F 77% 29.83 in 6.2 mi West 25.3 mph 36.8 mph N/A Rain Light Rain Showers
6:30 PM 55.4 °F 48.2 °F 77% 29.83 in 6.2 mi West 18.4 mph - N/A   Scattered Clouds
7:00 PM 55 °F 48 °F 70% 29.86 in 37 mi WNW 15.7 mph - - Rain Light Rain Showers
7:00 PM 55.4 °F 46.4 °F 72% 29.83 in 6.2 mi WNW 16.1 mph - N/A   Mostly Cloudy
7:30 PM 57.2 °F 44.6 °F 63% 29.83 in 6.2 mi West 16.1 mph - N/A   Scattered Clouds
8:00 PM 57.2 °F 44.6 °F 63% 29.86 in 6.2 mi West 18.4 mph - N/A   Partly Cloudy
8:30 PM 55.4 °F 44.6 °F 67% 29.86 in 6.2 mi West 20.7 mph - N/A   Partly Cloudy
9:00 PM 55.4 °F 42.8 °F 63% 29.86 in 6.2 mi West 18.4 mph - N/A   Partly Cloudy
9:30 PM 53.6 °F 42.8 °F 67% 29.89 in 6.2 mi WSW 16.1 mph - N/A   Partly Cloudy
10:00 PM 51.8 °F 42.8 °F 71% 29.89 in 6.2 mi West 10.4 mph - N/A   Partly Cloudy
10:30 PM 50.0 °F 42.8 °F 76% 29.89 in 6.2 mi WSW 8.1 mph - N/A   Partly Cloudy
11:00 PM 48.2 °F 42.8 °F 82% 29.89 in 6.2 mi SW 4.6 mph - N/A   Partly Cloudy
11:30 PM 48.2 °F 44.6 °F 87% 29.89 in 6.2 mi SW 4.6 mph - N/A   Partly Cloudy